Weather Roundup
Issued by NWS

Home | Current Version | Previous Version | Graphics & Text | Print | Product List | Glossary Off
Versions: 1 2 3 4 5 6 7 8 9 10 11 12 13 14 15 16 17 18 19 20 21 22 23 24 25 26 27 28 29 30 31 32 33 34 35 36 37 38 39 40 41 42 43 44 45 46 47 48 49 50

000
NZUS93 KARX 220359
HRRWXR

CURRENT HOURLY OBSERVATIONS ACROSS
MUCH OF THE UPPER MISSISSIPPI VALLEY
NATIONAL WEATHER SERVICE LA CROSSE WI
1000 PM CST WED FEB 21 2018


...SOUTHEAST MINNESOTA...


CITY           SKY/WX    TMP DP  RH WIND       PRES   REMARKS
ROCHESTER      MOCLDY    15  10  80 NE3       30.62R
ROCHESTER/MAYO FAIR      16  11  80 CALM      30.63S
WINONA         FAIR      18  14  86 CALM      30.67R
AUSTIN         MOCLDY    18  12  79 CALM      30.61S
ALBERT LEA     MOCLDY    16  10  79 CALM      30.61S
DODGE CENTER   FAIR      12   9  85 CALM      30.62R
PRESTON        FAIR      15  11  83 CALM      30.63R
OWATONNA       FAIR       9   7  92 CALM      30.62S
FARIBAULT      MOCLDY     7   1  78 CALM      30.63F
$$

...ELSEWHERE IN MINNESOTA...


CITY           SKY/WX    TMP DP  RH WIND       PRES   REMARKS
MINNEAPOLIS    MOCLDY    15   5  64 S5        30.65R WCI   8
INTNL FALLS    FAIR       5  -5  63 W7        30.52R WCI  -7
DULUTH         FAIR      11  -2  56 SW8       30.56R WCI  -1
RED WING       FAIR       7   1  78 CALM      30.66S
REDWOOD FALLS  FAIR       4   0  83 S7        30.61S WCI  -8
MANKATO        CLOUDY    11   5  77 SE3       30.63F
WORTHINGTON    CLOUDY    12   8  84 E5        30.55F WCI   4
FAIRMONT       CLOUDY    12   7  80 E3        30.61F
$$

...SOUTHWEST WISCONSIN...


CITY           SKY/WX    TMP DP  RH WIND       PRES   REMARKS
LA CROSSE      FAIR      19  15  84 CALM      30.67R
PRAIRIE DU CHI FAIR      23  11  58 CALM      30.64F
BOSCOBEL       FAIR      23  14  68 NE3       30.65S
LONE ROCK      NOT AVBL
PLATTEVILLE    FAIR      24  16  71 NE7       30.61S WCI  16
FORT MC COY    FAIR      15  14  95 CALM      30.66S
MAUSTON-NEW LI FAIR      18  15  88 CALM      30.64S
VIROQUA        FAIR      19  17  93 CALM      30.61S
WIS DELLS      FAIR      20  13  73 N3        30.64S
$$

...ELSEWHERE IN WISCONSIN...


CITY           SKY/WX    TMP DP  RH WIND       PRES   REMARKS
MILWAUKEE      CLOUDY    26  15  63 N3        30.65S
MADISON        CLOUDY    22  14  71 NE5       30.64S WCI  16
GREEN BAY      FAIR      21  11  65 NW3       30.67S
EAU CLAIRE     NOT AVBL
BLACK RVR FLS  FAIR       9   5  85 CALM      30.66S
MEDFORD        FAIR       4   1  85 CALM      30.60S
WAUSAU         FAIR       9   5  84 CALM      30.62S
WIS RAPIDS     FAIR      12   7  80 CALM      30.66S
MARSHFIELD     FAIR      10   6  84 CALM      30.62R
RICE LAKE      FAIR       1  -1  88 CALM      30.65R
$$

...NORTHEAST IOWA...


CITY           SKY/WX    TMP DP  RH WIND       PRES   REMARKS
WATERLOO       MOCLDY    22  16  78 NE6       30.61F WCI  14
DUBUQUE        FAIR      23  13  65 NE8       30.60S WCI  14
DECORAH        FAIR      19  14  79 CALM      30.60F
MASON CITY     MOCLDY    21  13  71 NE7       30.61F WCI  12
CHARLES CITY   CLOUDY    21  16  79 NE6       30.61F WCI  14
OELWEIN        CLOUDY    21  19  93 NE8       30.61F WCI  12
$$

...ELSEWHERE IN IOWA...


CITY           SKY/WX    TMP DP  RH WIND       PRES   REMARKS
DES MOINES     CLOUDY    24  15  68 NE12      30.57F WCI  13
IOWA CITY      FAIR      27  16  63 NE8       30.62F WCI  19
FORT DODGE     CLOUDY    19  14  81 NE3       30.59F
MARSHALLTOWN   CLOUDY    23  16  74 NE10      30.59S WCI  12
CEDAR RAPIDS   MOCLDY    25  14  63 NE10      30.59S WCI  15
$$

...NORTHERN ILLINOIS...


CITY           SKY/WX    TMP DP  RH WIND       PRES   REMARKS
CHICAGO-OHARE  CLOUDY    29  19  66 NE12      30.62F WCI  19
CHICAGO-MIDWAY CLOUDY    30  23  75 NE13      30.63S WCI  20
MOLINE         FAIR      28  19  69 NE9       30.59F WCI  19
ROCKFORD       CLOUDY    25  16  68 NE8       30.65S WCI  16
PEORIA         FAIR      29  24  82 NE13G23   30.55F WCI  19
$$

NOTE: "FAIR" INDICATES FEW OR NO CLOUDS BELOW 12,000 FEET WITH NO
SIGNIFICANT WEATHER AND/OR OBSTRUCTIONS TO VISIBILITY. WIND
SPEEDS ARE IN MILES-PER-HOUR.




USA.gov is the U.S. government's official web portal to all federal, state and local government web resources and services.